[[[{"header":{"parameterUnit":"kt","parameterCategory":2,"dx":1,"dy":1,"la1":30.253999710083008,"la2":30.299108505249023,"lo1":-89.0895004272461,"lo2":-89.04439544677734,"nx":28,"ny":28,"refTime":"2022-10-07T21:00:00:Z","depth":0,"parameterNumber":1,"parameterNumberName":"U-component_of_WINDS"},"data":[-4.1078,-4.1204,-4.1198,-4.1337,-4.1354,-4.1448,-4.1479,-4.1518,-4.1546,-4.1655,-4.1716,-4.172,-4.1744,-4.1813,-4.1878,-4.1877,-4.1907,-4.1956,-4.1948,-4.1733,-4.1702,-4.1673,-4.1645,-4.1962,-4.1962,-4.2174,-4.2176,-4.2177,-4.092,-4.0939,-4.1011,-4.1076,-4.1137,-4.1084,-4.1131,-4.1185,-4.127,-4.1305,-4.1365,-4.1459,-4.1532,-4.1539,-4.1608,-4.1665,-4.1644,-4.1684,-4.1681,-4.1686,-4.1455,-4.1425,-4.17,-4.17,-4.1699,-4.1699,-4.1699,-4.1699,-4.0631,-4.0707,-4.0743,-4.082,-4.085,-4.0893,-4.0963,-4.0967,-4.1036,-4.1108,-4.1084,-4.1179,-4.1212,-4.129,-4.1313,-4.1386,-4.134,-4.1381,-4.1392,-4.1404,-4.1419,-4.1119,-4.1396,-4.1396,-4.1395,-4.1394,-4.1393,0,-4.0418,-4.0408,-4.0476,-4.0543,-4.0598,-4.0649,-4.0693,-4.0736,-4.0708,-4.0766,-4.0849,-4.0895,-4.0984,-4.1061,-4.1122,-4.1138,-4.109,-4.1083,-4.1112,-4.1128,-4.1134,-4.1135,-4.0761,-4.1076,-4.1073,-4.1071,-4.107,-4.1069,-4.0129,-4.0217,-4.025,-4.0299,-4.0322,-4.0401,-4.0446,-4.0415,-4.0464,-4.0513,-4.058,-4.0655,-4.0715,-4.0847,-4.0849,-4.0916,-4.0894,-4.1015,-4.0904,-4.0914,-4.0899,-4.0896,-4.0905,-4.1039,-4.1043,-4.1046,-4.1049,0,-3.9967,-3.9955,-4.0089,-4.0113,-4.0121,-4.0215,-4.0234,-4.0307,-4.0302,-4.0402,-4.0423,-4.0415,-4.0496,-4.0478,-4.0566,-4.0555,-4.0708,-4.0682,-4.0696,-4.0692,-4.0801,-4.0792,-4.1154,-4.12,-4.0868,-4.0871,-4.0873,0,-3.9717,-3.9834,-3.9809,-3.9888,-4.0016,-3.9982,-4.0109,-4.0118,-4.0146,-4.0225,-4.0166,-4.0241,-4.0206,-4.0277,-4.026,-4.0381,-4.0396,-4.0396,-4.0391,-4.0404,-4.0404,-4.0431,-4.0418,-4.0371,-4.0369,-4.0368,-4.0366,0,-3.9468,-3.959,-3.9717,-3.9743,-3.978,-3.984,-3.9858,-3.9889,-3.9934,-3.9987,-4.0016,-4.008,-4.0117,-4.0167,-4.0145,-4.007,-4.0292,-4.0184,-4.0292,-4.0293,-4.0345,-4.0343,-4.0664,-4.0364,-4.0364,-4.0363,-4.0362,0,-3.9266,-3.9323,-3.9508,-3.9537,-3.9571,-3.9653,-3.9716,-3.9783,-3.982,-3.9815,-3.9857,-3.9817,-3.992,-3.9815,-3.9957,-3.9866,-3.9904,-3.9912,-3.992,-3.9931,-3.9815,-4.0003,-4.0308,-4.0341,-3.9937,-3.9933,-3.993,0,-3.8985,-3.9168,-3.9142,-3.9318,-3.94,-3.9331,-3.9422,-3.9457,-3.9458,-3.9527,-3.9527,-3.9606,-3.9523,-3.9546,-3.9618,-3.9622,-3.9739,-3.9604,-3.9706,-3.971,-3.9702,-3.9981,-4.0033,-4.0242,-3.9884,-3.9889,-3.9892,0,-3.8767,-3.8811,-3.8845,-3.8874,-3.8916,-3.8984,-3.9088,-3.9159,-3.9207,-3.9252,-3.9339,-3.9447,-3.9391,-3.9428,-3.9403,-3.9479,-3.9658,-3.9408,-3.9408,-3.9456,-3.9859,-3.9908,-3.9943,-3.9624,-3.9629,-3.9634,-3.9856,0,-3.8469,-3.8558,-3.8647,-3.8712,-3.8762,-3.887,-3.8854,-3.8908,-3.8879,-3.8878,-3.9004,-3.9028,-3.91,-3.9134,-3.9106,-3.9285,-3.9253,-3.9191,-3.9091,-3.9273,-3.9346,-3.9376,-3.8983,-3.898,-3.8978,-3.8975,0,0,-3.8205,-3.8334,-3.8301,-3.8402,-3.8443,-3.837,-3.8488,-3.8518,-3.8582,-3.8611,-3.8554,-3.8712,-3.8735,-3.889,-3.8945,-3.8973,-3.9005,-3.8942,-3.9186,-3.9209,-3.9231,-3.9309,-3.934,-3.8971,-3.897,-3.8969,-3.8968,0,-3.8094,-3.8119,-3.8236,-3.8266,-3.831,-3.8304,-3.8332,-3.8362,-3.8367,-3.8491,-3.843,-3.8503,-3.863,-3.8663,-3.8696,-3.8922,-3.8872,-3.8944,-3.9073,-3.916,-3.9187,-3.9211,-3.9293,-3.9323,-3.8962,-3.8962,-3.8962,0,-3.7879,-3.7902,-3.7956,-3.8044,-3.8072,-3.8158,-3.8048,-3.8143,-3.8207,-3.8122,-3.8247,-3.8258,-3.8299,-3.8447,-3.8513,-3.8463,-3.8753,-3.8658,-3.8674,-3.8682,-3.8765,-3.8798,-3.8827,-3.8447,-3.8445,-3.8443,0,0,-3.7785,-3.7868,-3.7883,-3.8019,-3.8041,-3.8033,-3.8077,-3.8053,-3.8092,-3.8109,-3.8123,-3.8162,-3.8236,-3.8285,-3.8353,-3.8518,-3.8525,-3.8595,-3.8619,-3.8639,-3.8658,-3.8747,-3.8779,-3.8437,-3.8437,-3.8437,0,0,-3.774,-3.7764,-3.7728,-3.7884,-3.7924,-3.7948,-3.8032,-3.7988,-3.8048,-3.8034,-3.7997,-3.8006,-3.8144,-3.8158,-3.8073,-3.8317,-3.8218,-3.8237,-3.8304,-3.8335,-3.8359,-3.8354,-3.7965,0,0,0,0,0,-3.7619,-3.776,-3.7728,-3.7752,-3.7863,-3.7966,-3.798,-3.7954,-3.7884,-3.795,-3.7955,-3.7899,-3.8105,-3.8029,-3.8053,-3.8149,-3.8354,-3.8368,-3.8382,-3.8507,-3.8539,-3.8566,0,0,0,0,0,0,-3.7628,-3.7657,-3.7724,-3.7755,-3.7779,-3.796,-3.7837,-3.7833,-3.7876,-3.7864,-3.79,-3.79,-3.7879,-3.8015,-3.8037,-3.8128,-3.7957,-3.8359,-3.8372,-3.8383,-3.8518,-3.8544,-3.8567,0,0,0,0,0,-3.7635,-3.7658,-3.7844,-3.7752,-3.7774,-3.7773,-3.7831,-3.7827,-3.786,-3.7868,-3.7866,-3.7836,-3.7882,-3.7899,-3.8028,-3.8119,-3.7942,-3.795,-3.8368,-3.8377,-3.8386,-3.8531,0,0,0,0,0,0,-3.764,-3.7655,-3.7847,-3.7853,-3.7697,-3.7762,-3.7771,-3.7822,-3.7861,-3.7861,-3.7802,-3.7792,-3.7887,-3.7898,-3.7912,-3.8118,-3.793,-3.7938,-3.7943,-3.8375,-3.8383,-3.839,0,0,0,0,0,0,-3.7643,-3.7661,-3.785,-3.7782,-3.778,-3.7752,-3.7761,-3.7866,-3.7862,-3.7792,-3.7785,-3.7797,-3.7867,-3.7899,-3.7909,-3.8074,-3.792,-3.7928,-3.7934,-3.7937,-3.8381,-3.8387,0,0,0,0,0,0,-3.765,-3.7665,-3.778,-3.7779,-3.7776,-3.7836,-3.7845,-3.796,-3.7805,-3.7792,-3.779,-3.7783,-3.7869,-3.7878,-3.7908,-3.8069,-3.8073,-3.792,-3.7926,-3.793,-3.7932,0,0,0,0,0,0,0,-3.7655,-3.7558,-3.7815,-3.7776,-3.7773,-3.7904,-3.7905,-3.7907,-3.7803,-3.7797,-3.7791,-3.7786,-3.7874,-3.7883,-3.7892,-3.8065,0,0,-3.7919,-3.7923,0,0,0,0,0,0,0,0,-3.7551,-3.7556,-3.7815,-3.7816,-3.7817,-3.7904,-3.7905,-3.7906,-3.7802,-3.7797,-3.7793,-3.7788,-3.7877,-3.7884,-3.7891,0,0,0,0,0,0,0,0,0,0,0,0,0,0,0,-3.7815,-3.7816,0,-3.7904,-3.7905,-3.7906,-3.7801,-3.7797,-3.7794,-3.779,-3.7879,-3.7885,-3.789,0,0,0,0,0,0,0,0,0,0,0,0,0,0,0,0,0,0,0,0,0,0,0,0,0,0,0,0,0,0,0,0,0,0,0,0,0,0,0,0,0,0,0,0,0,0,0,0,0,0,0,0,0,0,0,0,0,0,0,0,0,0,0,0,0,0,0,0,0]}],[{"header":{"parameterUnit":"kt","parameterCategory":2,"dx":1,"dy":1,"la1":30.253999710083008,"la2":30.299108505249023,"lo1":-89.0895004272461,"lo2":-89.04439544677734,"nx":28,"ny":28,"refTime":"2022-10-07T21:00:00:Z","depth":0,"parameterNumber":2,"parameterNumberName":"V-component_of_WINDS"},"data":[-12.0381,-12.0609,-12.0614,-12.0873,-12.092,-12.1097,-12.116,-12.1242,-12.1306,-12.1512,-12.163,-12.1651,-12.1712,-12.1848,-12.1972,-12.1977,-12.203,-12.211,-12.2102,-12.175,-12.1701,-12.1654,-12.1603,-12.2121,-12.2121,-12.2468,-12.2471,-12.2474,-12.0124,-12.0175,-12.0314,-12.0451,-12.0569,-12.0495,-12.0595,-12.0697,-12.0855,-12.0935,-12.1051,-12.123,-12.1369,-12.1402,-12.1534,-12.1635,-12.1606,-12.1671,-12.1664,-12.1675,-12.1297,-12.1243,-12.1693,-12.1693,-12.1693,-12.1693,-12.1693,-12.1693,-11.9657,-11.9794,-11.988,-12.003,-12.0099,-12.0189,-12.0317,-12.0343,-12.0474,-12.0618,-12.0591,-12.0767,-12.0843,-12.1001,-12.1052,-12.1185,-12.1112,-12.1182,-12.12,-12.1218,-12.124,-12.0743,-12.1207,-12.1206,-12.1204,-12.1203,-12.1202,0,-11.9317,-11.9312,-11.9445,-11.958,-11.9688,-11.9791,-11.9884,-11.9963,-11.9944,-12.0053,-12.0209,-12.0299,-12.0473,-12.0616,-12.0739,-12.0777,-12.0706,-12.0698,-12.0746,-12.0764,-12.0765,-12.0769,-12.0156,-12.0684,-12.068,-12.0676,-12.0674,-12.0672,-11.8848,-11.9006,-11.9095,-11.9188,-11.924,-11.9389,-11.9477,-11.9448,-11.9542,-11.9649,-11.9767,-11.9912,-12.0026,-12.0271,-12.0291,-12.0419,-12.0386,-12.0588,-12.0404,-12.0415,-12.039,-12.0383,-12.0398,-12.0625,-12.0631,-12.0636,-12.064,0,-11.8584,-11.8588,-11.8832,-11.8903,-11.8925,-11.909,-11.9148,-11.9279,-11.9287,-11.9468,-11.9508,-11.952,-11.9671,-11.9659,-11.9826,-11.9815,-12.008,-12.0043,-12.0055,-12.0048,-12.0229,-12.0213,-12.0816,-12.0893,-12.0354,-12.0359,-12.0364,0,-11.8186,-11.8392,-11.8386,-11.8527,-11.8755,-11.8721,-11.8946,-11.8975,-11.9041,-11.9184,-11.9103,-11.9237,-11.92,-11.9332,-11.9315,-11.9529,-11.9559,-11.9563,-11.9557,-11.9572,-11.9572,-11.962,-11.9595,-11.9533,-11.953,-11.9527,-11.9525,0,-11.7774,-11.801,-11.8239,-11.8293,-11.8388,-11.8495,-11.8537,-11.861,-11.8695,-11.8802,-11.8856,-11.8982,-11.9051,-11.9147,-11.9126,-11.9002,-11.9386,-11.9211,-11.939,-11.9392,-11.9477,-11.9472,-12.0009,-11.9521,-11.952,-11.9519,-11.9518,0,-11.7452,-11.7567,-11.7898,-11.7975,-11.8037,-11.8186,-11.8311,-11.8436,-11.8518,-11.8518,-11.8601,-11.8545,-11.8731,-11.8558,-11.8813,-11.8658,-11.8729,-11.8749,-11.8762,-11.8778,-11.8586,-11.8892,-11.9403,-11.9457,-11.8793,-11.8787,-11.8781,0,-11.698,-11.7314,-11.7289,-11.7602,-11.7755,-11.7657,-11.7821,-11.7896,-11.7911,-11.8039,-11.8051,-11.8197,-11.8065,-11.8108,-11.8236,-11.8254,-11.8455,-11.8226,-11.8407,-11.8414,-11.8392,-11.8862,-11.8942,-11.9293,-11.8704,-11.8712,-11.8718,0,-11.6614,-11.6729,-11.6787,-11.6847,-11.6944,-11.707,-11.7258,-11.7396,-11.7484,-11.7575,-11.7731,-11.7932,-11.7842,-11.7914,-11.788,-11.8014,-11.8318,-11.7897,-11.7898,-11.7975,-11.8662,-11.8738,-11.8798,-11.8265,-11.8274,-11.8282,-11.8656,0,-11.6131,-11.6297,-11.6453,-11.6588,-11.6683,-11.6878,-11.6869,-11.697,-11.693,-11.694,-11.7167,-11.7222,-11.7358,-11.742,-11.7381,-11.7691,-11.7637,-11.7538,-11.7369,-11.7677,-11.78,-11.785,-11.7187,-11.7182,-11.7178,-11.7174,0,0,-11.5678,-11.5917,-11.5882,-11.6065,-11.6144,-11.6039,-11.6248,-11.631,-11.644,-11.6495,-11.6401,-11.6694,-11.6742,-11.7018,-11.7113,-11.7167,-11.7221,-11.7113,-11.753,-11.757,-11.7606,-11.7738,-11.779,-11.7166,-11.7165,-11.7163,-11.7162,0,-11.5501,-11.556,-11.5769,-11.5834,-11.5929,-11.593,-11.598,-11.6053,-11.6069,-11.6292,-11.6198,-11.6331,-11.6565,-11.663,-11.6693,-11.708,-11.7,-11.7121,-11.7335,-11.7487,-11.7533,-11.7573,-11.7712,-11.7762,-11.7151,-11.7152,-11.7153,0,-11.514,-11.5197,-11.5297,-11.5472,-11.5532,-11.5689,-11.5512,-11.5685,-11.5801,-11.5671,-11.5893,-11.5921,-11.6005,-11.6267,-11.6383,-11.63,-11.6801,-11.6639,-11.6666,-11.6678,-11.6825,-11.6879,-11.6928,-11.6287,-11.6284,-11.6281,0,0,-11.4987,-11.5142,-11.5192,-11.5433,-11.5477,-11.5482,-11.5564,-11.5533,-11.5614,-11.5646,-11.5682,-11.5761,-11.5895,-11.5985,-11.6111,-11.64,-11.6414,-11.6533,-11.6574,-11.6608,-11.6638,-11.6794,-11.6848,-11.627,-11.627,-11.627,0,0,-11.4912,-11.4982,-11.4929,-11.5208,-11.5291,-11.5353,-11.5499,-11.5434,-11.5547,-11.5523,-11.5474,-11.5493,-11.5736,-11.5767,-11.5621,-11.605,-11.5883,-11.5918,-11.6022,-11.6073,-11.6113,-11.6101,-11.5443,0,0,0,0,0,-11.4727,-11.4974,-11.4925,-11.4971,-11.5189,-11.5381,-11.5408,-11.5376,-11.526,-11.5376,-11.5395,-11.5304,-11.5678,-11.5548,-11.5591,-11.5755,-11.6127,-11.6153,-11.6177,-11.6378,-11.6432,-11.6478,0,0,0,0,0,0,-11.4744,-11.4801,-11.4918,-11.4992,-11.504,-11.5371,-11.5167,-11.5165,-11.5246,-11.5226,-11.5304,-11.5306,-11.528,-11.5523,-11.5563,-11.5719,-11.5429,-11.6137,-11.6159,-11.6178,-11.6397,-11.6441,-11.6478,0,0,0,0,0,-11.4758,-11.4803,-11.5162,-11.4988,-11.503,-11.5048,-11.5157,-11.5154,-11.5216,-11.5246,-11.5246,-11.5185,-11.5285,-11.5316,-11.5546,-11.5702,-11.5402,-11.5417,-11.6151,-11.6168,-11.6184,-11.6418,0,0,0,0,0,0,-11.4769,-11.48,-11.517,-11.5181,-11.4893,-11.5028,-11.5048,-11.5145,-11.5229,-11.5232,-11.5123,-11.5107,-11.5292,-11.5315,-11.5339,-11.5698,-11.5379,-11.5394,-11.5404,-11.6164,-11.6178,-11.6189,0,0,0,0,0,0,-11.4775,-11.4811,-11.5176,-11.5058,-11.5055,-11.5011,-11.5029,-11.5218,-11.5231,-11.5101,-11.509,-11.5115,-11.5254,-11.5315,-11.5334,-11.563,-11.5362,-11.5376,-11.5386,-11.5393,-11.6175,-11.6186,0,0,0,0,0,0,-11.4789,-11.482,-11.5054,-11.5053,-11.505,-11.5176,-11.5176,-11.54,-11.5135,-11.5099,-11.511,-11.5098,-11.5257,-11.5274,-11.5331,-11.562,-11.5627,-11.5362,-11.5372,-11.5379,-11.5384,0,0,0,0,0,0,0,-11.4801,-11.4608,-11.5103,-11.5049,-11.5046,-11.5288,-11.5291,-11.5294,-11.5132,-11.5122,-11.5112,-11.5103,-11.5279,-11.5295,-11.5311,-11.5612,0,0,-11.5361,-11.5368,0,0,0,0,0,0,0,0,-11.4594,-11.4605,-11.5103,-11.5105,-11.5108,-11.5288,-11.5291,-11.5293,-11.5131,-11.5123,-11.5114,-11.5107,-11.5283,-11.5296,-11.5309,0,0,0,0,0,0,0,0,0,0,0,0,0,0,0,-11.5103,-11.5105,0,-11.5289,-11.5291,-11.5293,-11.5129,-11.5123,-11.5116,-11.511,-11.5287,-11.5297,-11.5308,0,0,0,0,0,0,0,0,0,0,0,0,0,0,0,0,0,0,0,0,0,0,0,0,0,0,0,0,0,0,0,0,0,0,0,0,0,0,0,0,0,0,0,0,0,0,0,0,0,0,0,0,0,0,0,0,0,0,0,0,0,0,0,0,0,0,0,0,0]}]]]